This is the latest recevied weather packets stored in our database for station/object LROP. If no packets are shown the sender has not sent any weather packets the latest 10 day(s).
| Time | Temp. | Humidity | Pressure | Rain* | Wind** | Luminosity | Snow |
|---|---|---|---|---|---|---|---|
| 1777742282 | 10° C | 71% | 1021 hPa | - | - | - | - |
| 1777741382 | 10° C | 71% | 1021 hPa | - | - | - | - |
| 1777740482 | 11.11° C | 50% | 1021 hPa | - | - | - | - |
| 1777739582 | 11.11° C | 50% | 1021 hPa | - | - | - | - |
| 1777738682 | 12.22° C | 44% | 1021 hPa | - | - | - | - |
| 1777737783 | 12.22° C | 44% | 1021 hPa | - | - | - | - |
| 1777736888 | 12.22° C | 47% | 1021 hPa | - | - | - | - |
| 1777735983 | 12.22° C | 47% | 1021 hPa | - | - | - | - |
| 1777735082 | 12.22° C | 51% | 1022 hPa | - | - | - | - |
| 1777734182 | 12.22° C | 51% | 1022 hPa | - | - | - | - |
| 1777733282 | 12.22° C | 54% | 1022 hPa | - | - | - | - |
| 1777732382 | 12.22° C | 54% | 1022 hPa | - | - | - | - |
| 1777731482 | 12.22° C | 54% | 1022 hPa | - | - | - | - |
| 1777730582 | 12.22° C | 54% | 1022 hPa | - | - | - | - |
| 1777729682 | 12.78° C | 51% | 1022 hPa | - | - | - | - |
| 1777728782 | 12.78° C | 51% | 1022 hPa | - | - | - | - |
| 1777727882 | 12.22° C | 63% | 1022 hPa | - | - | - | - |
| 1777726982 | 12.22° C | 63% | 1022 hPa | - | - | - | - |
| 1777726082 | 12.22° C | 58% | 1022 hPa | - | - | - | - |
| 1777725182 | 12.22° C | 58% | 1022 hPa | - | - | - | - |
| 1777724282 | 11.11° C | 62% | 1023 hPa | - | - | - | - |
| 1777723390 | 11.11° C | 62% | 1023 hPa | - | - | - | - |
| 1777722482 | 10° C | 62% | 1023 hPa | - | - | - | - |
| 1777721581 | 10° C | 62% | 1023 hPa | - | - | - | - |
| 1777720682 | 12.78° C | 67% | 1023 hPa | - | - | - | - |
* Rain since midnight (hover to see other rain measurements)
** Current wind speed in m/s (hover to see current wind gust speed)